Tracking 18796 objects as of 20-September-2017
HD Live streaming from Space Station
objects crossing your sky now

FLOCK 2K 39

Track FLOCK 2K 39 now!
10-day predictions
FLOCK 2K 39 is classified as:


NORAD ID: 42866
Int'l Code: 2017-042AT
Perigee: 464.1 km
Apogee: 481.4 km
Inclination: 97.0 °
Period: 93.9 minutes
Semi major axis: 6843 km
RCS: Unknown
Launch date: July 14, 2017
Source: United States (US)
Launch site: TYURATAM MISSILE AND SPACE COMPLEX (TTMTR)
aabbcc
Your satellite tracking list
Your tracking list is empty





NASA's NSSDC Master Catalog

Two Line Element Set (TLE):
1 42866U 17042AT  17262.70722608 +.00003665 +00000-0 +11550-3 0  9995
2 42866 096.9970 168.1064 0012633 019.5969 340.5757 15.33412031010137
Source of the keplerian elements: AFSPC